Landsberg, Germany

6:58 AM CEST on April 27, 2018 (GMT +0200)
Landsberg Air Base

Weather History for ETSA - September, 2013

Change the Weather History Date:

Wednesday, September 25, 2013

  Actual Average (EDMO) Record (EDMO)
Temperature  
Mean Temperature 58 °F -  
Max Temperature 71 °F 57 °F 71 °F (2013)
Min Temperature 46 °F 51 °F 32 °F (2002)
Degree Days  
Heating Degree Days 6    
Growing Degree Days 8 (Base 50)    
Moisture  
Dew Point 51 °F    
Average Humidity 77    
Maximum Humidity 100    
Minimum Humidity 53    
Precipitation  
Precipitation 0.00 in - - ()
Sea Level Pressure  
Sea Level Pressure 29.94 in    
Wind  
Wind Speed 6 mph ()    
Max Wind Speed 14 mph    
Max Gust Speed -    
Visibility 6.2 miles    
Events      
Averages and records for this station are not official NWS values.
T = Trace of Precipitation, MM = Missing Value Source: Averaged Metar Reports

Daily Weather History Graph

Daily Weather History Graph

Search for Another Location

Airport or City:

Astronomy

Sep. 25, 2013 Rise Set
Actual Time 7:07 AM CEST 7:07 PM CEST
Civil Twilight 6:36 AM CEST 7:38 PM CEST
Nautical Twilight 5:59 AM CEST 8:15 PM CEST
Astronomical Twilight 5:22 AM CEST 8:52 PM CEST
Moon 10:36 PM CEST (9/25) 1:22 PM CEST (9/25)
Length of Visible Light 13h 02m
Length of Day
12h 00m
Waning Gibbous, 66% of the Moon is Illuminated
Sep 25
Waning Gibbous
Sep 27
Last Quarter
Oct 5
New
Oct 12
First Quarter
Oct 19
Full

Hourly Weather History & Observations

Time (CEST) Temp. Windchill Dew Point Humidity Pressure Visibility Wind Dir Wind Speed Gust Speed Precip Events Conditions
12:20 AM 50.0 °F - 48.2 °F 94% 29.98 in 6.2 mi South 4.6 mph - N/A   Partly Cloudy
1:20 AM 48.2 °F - 46.4 °F 93% 29.98 in 6.2 mi SSW 5.8 mph - N/A   Partly Cloudy
2:20 AM 46.4 °F 45.2 °F 44.6 °F 93% 29.98 in 6.2 mi SSE 3.5 mph - N/A   Unknown
3:20 AM 46.4 °F 45.2 °F 46.4 °F 100% 29.98 in 6.2 mi SSE 3.5 mph - N/A   Unknown
4:20 AM 48.2 °F - 46.4 °F 93% 29.95 in 6.2 mi SE 2.3 mph - N/A   Unknown
5:20 AM 46.4 °F 45.2 °F 44.6 °F 93% 29.95 in 6.2 mi ESE 3.5 mph - N/A   Unknown
6:20 AM 46.4 °F 44.3 °F 44.6 °F 93% 29.95 in 6.2 mi SSE 4.6 mph - N/A   Partly Cloudy
7:20 AM 46.4 °F 45.2 °F 44.6 °F 93% 29.95 in 6.2 mi South 3.5 mph - N/A   Partly Cloudy
8:20 AM 50.0 °F - 46.4 °F 87% 29.95 in 6.2 mi South 3.5 mph - N/A   Partly Cloudy
9:20 AM 57.2 °F - 50.0 °F 77% 29.95 in 6.2 mi SSW 5.8 mph - N/A   Partly Cloudy
10:20 AM 60.8 °F - 51.8 °F 72% 29.95 in 6.2 mi SW 8.1 mph - N/A   Partly Cloudy
11:20 AM 64.4 °F - 53.6 °F 68% 29.95 in 6.2 mi SW 10.4 mph - N/A   Partly Cloudy
12:20 PM 68.0 °F - 53.6 °F 60% 29.92 in 6.2 mi WSW 12.7 mph - N/A   Mostly Cloudy
1:20 PM 69.8 °F - 51.8 °F 53% 29.92 in 6.2 mi WSW 12.7 mph - N/A   Mostly Cloudy
2:20 PM 69.8 °F - 53.6 °F 56% 29.92 in 6.2 mi West 12.7 mph - N/A   Mostly Cloudy
3:20 PM 69.8 °F - 53.6 °F 56% 29.92 in 6.2 mi West 13.8 mph - N/A   Mostly Cloudy
4:20 PM 71.6 °F - 53.6 °F 53% 29.89 in 6.2 mi WSW 12.7 mph - N/A   Mostly Cloudy
5:20 PM 69.8 °F - 53.6 °F 56% 29.89 in 6.2 mi WSW 12.7 mph - N/A   Mostly Cloudy
6:20 PM 68.0 °F - 53.6 °F 60% 29.89 in 6.2 mi WSW 9.2 mph - N/A   Mostly Cloudy
7:20 PM 64.4 °F - 53.6 °F 68% 29.89 in 6.2 mi WSW 8.1 mph - N/A   Mostly Cloudy
8:20 PM 62.6 °F - 55.4 °F 77% 29.92 in 6.2 mi SW 8.1 mph - N/A   Mostly Cloudy
9:20 PM 60.8 °F - 55.4 °F 82% 29.95 in 6.2 mi WSW 8.1 mph - N/A   Scattered Clouds
10:20 PM 59.0 °F - 53.6 °F 82% 29.95 in 6.2 mi SW 6.9 mph - N/A   Scattered Clouds
11:20 PM 59.0 °F - 53.6 °F 82% 29.95 in 6.2 mi SSW 8.1 mph - N/A   Partly Cloudy